Location: Unspecified
(64.9000°N, 0.0000°E)
Time: 17:06:22
(UTC+00:00)

Altair - Pass Details

Date: 22 June 2019
Orbit: 1501 x 1683 km, 47.2° (Epoch: 17 July)

Event Time Altitude Azimuth Distance (km) Brightness Sun altitude
Rises 18:33:20 0° 178° (S) 4,725 9.9 17.9°
Reaches altitude 10° 18:39:30 10° 148° (SSE) 3,794 9.2 17.3°
Maximum altitude 18:42:04 11° 132° (SE) 3,709 9.0 17.0°
Drops below altitude 10° 18:44:40 10° 116° (ESE) 3,838 9.0 16.7°
Sets 18:51:00 0° 87° (E) 4,874 9.6 16.1°
